STARLINK-11522, 63141

Orbit data source: Space-Track

STARLINK-11522, 63141 is a payload satellite owned by SpaceX/Seattle (US) in LEO that was launched on Mon, 03 Mar 2025 UTC via an FALCON 9 launch vehicle from the Air Force Eastern Test Range (AFETR). Payload-class satellites include a variety of spacecraft equipped with specific instruments for various scientific and technological missions. These include communications satellites like Starlink; space stations such as the ISS; scientific satellites like the Hubble; Earth observation satellites from companies like Planet Labs, Umbra, and HawkEye 360; GPS; miniature CubeSats for education and research; and military/defense satellites.

Loading next visibility...
Identifier
63141, 2025-043K
Orbit
LEO
Country
Flag of USUS
Related business
Manufacturer
SpaceX/Seattle
Mission
Operational Commercial Communications
Bus & Motor
STARLINK V2MD, Unknown motor
Mass
960 kg wet, ~910 kg dry
Launch date (UTC)
2025-03-03 (11 months ago)
Launch vehicle
FALCON 9
Launch site
Air Force Eastern Test Range (AFETR)
Object type
Payload
Rocket body
Debris
Shape & HBR
Box + 2 Pan, 18.1 m
Radar Cross Section
36.964 m², Large (>1 m²)

Expand to show TLE details & history
Last TLE update: 6 hours ago

TLE from 6 hours ago
0 STARLINK-11522
1 63141U 25043K   26037.14857697  .00256632  00000-0  19333-2 0  9999
2 63141  43.0001  80.6437 0003266 238.7786 121.2762 15.70949370 54332
Epoch: 2026-02-06T03:33Z
TLE epoch observation values (Epoch: 2026-02-06T03:33:57.050Z)
Latitude
Longitude
-109.13461°
Altitude
357.096 km
Speed
7.696 km/s
True Right ascension
05h 22m 34s
True Declination
0° 00' 00"
Sunlit
Object was in full shadow at epoch
Visualization orbit readout
Latitude
Unknown
Longitude
Unknown
Altitude
Unknown
Speed
Unknown
Apparent Right ascension
Unknown
Apparent Declination
Unknown
Sunlit
N/A
Visualization observer readout
Local Sidereal Time
11:37:01
Azimuth
Unknown
Elevation
Unknown
Doppler factor
Unknown
Orbital elements
Apogee altitude
360.364 km
Perigee altitude
355.964 km
Semi-major axis
6,736.301 km
Eccentricity
0.00033
Inclination
43.0001°
RAAN
80.6437°
Arg. of periapsis
238.7786°
True anomaly
121.30818°
Mean anomaly
121.2762°
Eccentric anomaly
121.29219°
Mean motion
3.92564 °/min
Orbital period
91.7 mins
BSTAR
0.0019333
Loading maneuver chart data...
Computing Atmospheric mass density...
Loading historical data...
Loading historical data...
Loading historical data...
Loading historical data...
Loading historical data...
Loading historical data...
Loading historical data...

Documentation

Showing up to 5 results
|